Location: Heisede
(52.2582°N, 9.8523°E)
Time: 00:33:02
(UTC+00:00)

Cosmos 864 Rocket - Pass Details

Date: 13 January 2026
Orbit: 953 x 990 km, 82.9° (Epoch: 17 February)

Event Time Altitude Azimuth Distance (km) Brightness Sun altitude
Rises 06:38:24 0° 192° (SSW) 3,621 7.7 -6.9°
Reaches altitude 10° 06:40:54 10° 194° (SSW) 2,677 7.0 -6.6°
Maximum altitude 06:47:01 79° 281° (W) 978 4.5 -5.7°
Drops below altitude 10° 06:53:12 10° 9° (N) 2,697 6.6 -4.9°
Sets 06:55:43 0° 10° (N) 3,650 7.3 -4.6°
